TimeAKST,TemperatureF,Dew PointF,Humidity,Sea Level PressureIn,VisibilityMPH,Wind Direction,Wind SpeedMPH,Gust SpeedMPH,PrecipitationIn,Events,Conditions,WindDirDegrees,DateUTC
12:16 AM,-14.8,-23.8,64,29.90,10.0,SW,4.6,-,N/A,,Overcast,230,2013-03-01 09:16:00
12:56 AM,-13.0,-23.8,59,29.91,10.0,Calm,Calm,-,N/A,,Overcast,0,2013-03-01 09:56:00
1:16 AM,-11.2,-14.8,84,29.92,10.0,Calm,Calm,-,N/A,,Overcast,0,2013-03-01 10:16:00
1:36 AM,-11.2,-25.6,49,29.93,10.0,Calm,Calm,-,N/A,,Overcast,0,2013-03-01 10:36:00
1:56 AM,-11.2,-18.4,70,29.94,10.0,Calm,Calm,-,N/A,,Overcast,0,2013-03-01 10:56:00
2:16 AM,-11.2,-16.6,77,29.95,10.0,Calm,Calm,-,N/A,,Overcast,0,2013-03-01 11:16:00
3:36 AM,-13.0,-23.8,59,29.98,10.0,Calm,Calm,-,N/A,,Mostly Cloudy,0,2013-03-01 12:36:00
3:56 AM,-14.8,-22.0,70,29.98,10.0,Calm,Calm,-,N/A,,Mostly Cloudy,0,2013-03-01 12:56:00
4:16 AM,-16.6,-25.6,64,29.99,10.0,East,4.6,-,N/A,,Overcast,90,2013-03-01 13:16:00
4:36 AM,-14.8,-23.8,64,30.00,10.0,Calm,Calm,-,N/A,,Overcast,0,2013-03-01 13:36:00
4:56 AM,-14.8,-22.0,70,30.01,10.0,East,3.5,-,N/A,,Overcast,90,2013-03-01 13:56:00
5:16 AM,-16.6,-27.4,58,30.02,10.0,East,3.5,-,N/A,,Overcast,100,2013-03-01 14:16:00
5:36 AM,-16.6,-25.6,64,30.03,10.0,ESE,3.5,-,N/A,,Overcast,120,2013-03-01 14:36:00
5:56 AM,-16.6,-25.6,64,30.03,10.0,SE,3.5,-,N/A,,Scattered Clouds,140,2013-03-01 14:56:00
6:16 AM,-18.4,-27.4,63,30.04,10.0,Calm,Calm,-,N/A,,Clear,0,2013-03-01 15:16:00
6:36 AM,-18.4,-27.4,63,30.05,10.0,SE,3.5,-,N/A,,Clear,140,2013-03-01 15:36:00
6:56 AM,-18.4,-27.4,63,30.05,10.0,Calm,Calm,-,N/A,,Clear,0,2013-03-01 15:56:00
7:16 AM,-18.4,-27.4,63,30.05,10.0,Calm,Calm,-,N/A,,Clear,0,2013-03-01 16:16:00
7:36 AM,-20.2,-29.2,63,30.06,10.0,Calm,Calm,-,N/A,,Clear,0,2013-03-01 16:36:00
7:56 AM,-20.2,-29.2,63,30.06,10.0,SE,3.5,-,N/A,,Clear,140,2013-03-01 16:56:00
8:16 AM,-20.2,-29.2,63,30.07,10.0,SE,3.5,-,N/A,,Clear,130,2013-03-01 17:16:00
8:36 AM,-20.2,-27.4,69,30.08,10.0,SE,3.5,-,N/A,,Clear,130,2013-03-01 17:36:00
8:56 AM,-20.2,-27.4,69,30.08,10.0,SE,3.5,-,N/A,,Clear,130,2013-03-01 17:56:00
9:16 AM,-22.0,-9999,N/A,30.09,10.0,ESE,3.5,-,N/A,,Clear,120,2013-03-01 18:16:00
9:36 AM,-20.2,-27.4,69,30.09,10.0,ESE,3.5,-,N/A,,Clear,110,2013-03-01 18:36:00
9:56 AM,-18.4,-23.8,76,30.09,10.0,East,4.6,-,N/A,,Clear,90,2013-03-01 18:56:00
10:16 AM,-23.8,-9999,N/A,30.10,10.0,East,4.6,-,N/A,,Clear,100,2013-03-01 19:16:00
10:36 AM,-23.8,-9999,N/A,30.11,1.0,East,5.8,-,N/A,,Clear,100,2013-03-01 19:36:00
10:56 AM,-23.8,-9999,N/A,30.12,9.0,ESE,5.8,-,N/A,,Clear,110,2013-03-01 19:56:00
11:16 AM,-22.0,-9999,N/A,30.13,10.0,ESE,4.6,-,N/A,,Clear,110,2013-03-01 20:16:00
11:36 AM,-20.2,-27.4,69,30.12,10.0,East,4.6,-,N/A,,Clear,80,2013-03-01 20:36:00
11:56 AM,-20.2,-20.2,100,30.12,10.0,ENE,4.6,-,N/A,,Clear,70,2013-03-01 20:56:00
12:16 PM,-20.2,-9999,N/A,30.13,5.0,East,3.5,-,N/A,,Clear,80,2013-03-01 21:16:00
12:36 PM,-20.2,-25.6,76,30.14,10.0,East,3.5,-,N/A,,Clear,80,2013-03-01 21:36:00
12:56 PM,-20.2,-27.4,69,30.14,7.0,East,3.5,-,N/A,,Clear,80,2013-03-01 21:56:00
1:16 PM,-20.2,-9999,N/A,30.15,7.0,East,4.6,-,N/A,,Clear,90,2013-03-01 22:16:00
1:36 PM,-18.4,-22.0,84,30.16,8.0,East,3.5,-,N/A,,Clear,80,2013-03-01 22:36:00
1:56 PM,-16.6,-9999,N/A,30.16,9.0,East,4.6,-,N/A,,Clear,80,2013-03-01 22:56:00
2:16 PM,-16.6,-20.2,84,30.17,8.0,East,6.9,-,N/A,,Clear,80,2013-03-01 23:16:00
2:36 PM,-16.6,-29.2,53,30.17,9.0,East,5.8,-,N/A,,Clear,80,2013-03-01 23:36:00
2:56 PM,-16.6,-16.6,100,30.17,10.0,ENE,6.9,-,N/A,,Clear,70,2013-03-01 23:56:00
3:16 PM,-16.6,-25.6,64,30.17,10.0,East,8.1,-,N/A,,Clear,80,2013-03-02 00:16:00
3:36 PM,-16.6,-27.4,58,30.18,10.0,East,5.8,-,N/A,,Clear,90,2013-03-02 00:36:00
3:56 PM,-14.8,-16.6,92,30.18,10.0,East,6.9,-,N/A,,Clear,80,2013-03-02 00:56:00
4:16 PM,-14.8,-27.4,53,30.18,10.0,East,8.1,-,N/A,,Clear,80,2013-03-02 01:16:00
4:36 PM,-16.6,-29.2,53,30.18,10.0,East,6.9,-,N/A,,Clear,90,2013-03-02 01:36:00
4:56 PM,-16.6,-20.2,84,30.18,10.0,East,8.1,-,N/A,,Clear,80,2013-03-02 01:56:00
5:16 PM,-16.6,-29.2,53,30.19,10.0,East,5.8,-,N/A,,Clear,80,2013-03-02 02:16:00
5:36 PM,-16.6,-20.2,84,30.19,10.0,East,6.9,-,N/A,,Clear,80,2013-03-02 02:36:00
5:56 PM,-18.4,-9999,N/A,30.18,10.0,East,8.1,-,N/A,,Clear,80,2013-03-02 02:56:00
6:16 PM,-18.4,-25.6,70,30.19,10.0,East,8.1,-,N/A,,Clear,90,2013-03-02 03:16:00
6:36 PM,-18.4,-29.2,58,30.19,10.0,East,8.1,-,N/A,,Clear,90,2013-03-02 03:36:00
6:56 PM,-18.4,-29.2,58,30.19,10.0,East,8.1,-,N/A,,Clear,90,2013-03-02 03:56:00
7:16 PM,-16.6,-22.0,76,30.18,10.0,East,8.1,-,N/A,,Clear,90,2013-03-02 04:16:00
7:36 PM,-18.4,-9999,N/A,30.18,10.0,ENE,9.2,-,N/A,,Clear,70,2013-03-02 04:36:00
7:56 PM,-20.2,-27.4,69,30.18,10.0,East,8.1,-,N/A,,Clear,80,2013-03-02 04:56:00
8:16 PM,-18.4,-29.2,58,30.18,10.0,East,9.2,-,N/A,,Clear,80,2013-03-02 05:16:00
8:36 PM,-20.2,-9999,N/A,30.18,10.0,East,8.1,-,N/A,,Clear,80,2013-03-02 05:36:00
8:56 PM,-20.2,-9999,N/A,30.19,10.0,East,8.1,-,N/A,,Clear,80,2013-03-02 05:56:00
9:16 PM,-20.2,-29.2,63,30.19,10.0,East,8.1,-,N/A,,Clear,80,2013-03-02 06:16:00
9:36 PM,-20.2,-9999,N/A,30.19,10.0,East,8.1,-,N/A,,Clear,80,2013-03-02 06:36:00
9:56 PM,-20.2,-9999,N/A,30.19,10.0,East,8.1,-,N/A,,Clear,80,2013-03-02 06:56:00
10:16 PM,-23.8,-9999,N/A,30.19,10.0,East,5.8,-,N/A,,Clear,90,2013-03-02 07:16:00
10:36 PM,-18.4,-23.8,76,30.19,10.0,ENE,8.1,-,N/A,,Clear,70,2013-03-02 07:36:00
10:56 PM,-16.6,-9999,N/A,30.19,10.0,East,10.4,-,N/A,,Clear,80,2013-03-02 07:56:00
11:16 PM,-20.2,-9999,N/A,30.19,10.0,East,9.2,-,N/A,,Clear,80,2013-03-02 08:16:00
11:36 PM,-20.2,-25.6,76,30.20,10.0,East,8.1,-,N/A,,Clear,80,2013-03-02 08:36:00
11:56 PM,-16.6,-25.6,64,30.19,10.0,ENE,9.2,-,N/A,,Clear,70,2013-03-02 08:56:00